Погода в Палаве-ле-Флоте

Франция     43°31′50″N   3°55′26″E
темп.,
°C
ветер,
м/с
пор.,
м/с
влажн.,
%
обл.,
%
осадки,
мм/ч
давл.,
гПа
погр.,
м
10 апреля, сб
сб1023:00+12юв8973100 0.6 10221163
02:00+13юв8966100 0.8 10201099
05:00+13юв91075100 0.5 10191093
08:00+13вюв91171100 0.6 10191063
11:00+13вюв91178100 0.1 1018951
14:00+13юв101179100 0.3 1017768
17:00+13юв101182100 0.4 1016728
20:00+12вюв101192100 2.3 1014700
11 апреля, вс
вс1123:00+12в7893100 1.5 1015606
02:00+11св459298 1.8 1014369
05:00+11ссв458974 0.0 1013308
08:00+11св4484100 0.0 1013222
11:00+12всв3483100 0.1 1014358
14:00+13в5692100 1.3 1014401
17:00+13всв2290100 0.4 1013173
20:00+12зсз5694100 1.8 1014350
12 апреля, пн
пн1223:00+11зсз101274100 0.5 1017581
02:00+9ссз7982100 2.6 1019654
05:00+10сз46725 1.2 1019400
08:00+9сз10136689 1.2 1020648
11:00+11сз11125432 0.0 10211203
14:00+13сз9114599 0.1 10202281
17:00+14ссз11134386 0.0 10202257
20:00+12сз1216430 0.0 10221892
13 апреля, вт
вт1323:00+10сз1115460 0.0 10241406
02:00+9сз1115460 0.0 10251366
05:00+9сз1015460 0.0 10241369
08:00+9сз1015460 0.0 10241292
11:00+11ссз1114390 0.0 10251659
14:00+14с1012380 0.0 10241616
17:00+15ссв1012403 0.0 1022694
20:00+14с913470 0.0 10231077
14 апреля, ср
ср1423:00+11с911503 0.0 1025793
02:00+10ссз7115322 0.0 1025884
05:00+9с6105613 0.0 1024531
08:00+8с61159100 0.0 1024495
11:00+11ссв894630 0.0 1024926
14:00+14ссв46415 0.0 10231509
17:00+13ююз2347100 0.0 1021357
20:00+13ссв7114666 0.0 1021830